Location: Ferchesar
(52.6477°N, 12.4298°E)
Time: 16:35:00
(UTC+01:00)

Vanguard 1 - Pass Details

Date: 12 December 2021
Orbit: 652 x 3830 km, 34.2° (Epoch: 22 January)

Event Time Altitude Azimuth Distance (km) Brightness Sun altitude
Rises 01:55:04 0° 264° (W) 7,392 - -53.6°
Reaches altitude 10° 02:00:08 10° 258° (WSW) 6,628 - -53.1°
Maximum altitude 02:20:14 41° 199° (SSW) 4,747 - -50.7°
Exits shadow 02:28:19 33° 163° (SSE) 4,932 13.3 -49.7°
Drops below altitude 10° 02:38:19 10° 138° (SE) 5,991 14.1 -48.4°
Sets 02:42:39 0° 131° (SE) 6,653 14.5 -47.8°
